N8YZF Weather Reports


Display with metric or nautical units.
time (UTC)temp
F
wind
direction
speed
MPH
gust
MPH
rain 1hr
in
rain 24hr
in
rain mn
in
humidity
%
barometer
mb
20260831131933 68 98 2.0 6.0 0.33 0.33 0.33 96 1012.5
20260831131423 68 101 2.0 7.0 0.32 0.32 0.33 96 1012.9
20260831130918 68 155 1.0 7.0 0.31 0.33 0.31 96 1012.9
20260831130415 68 197 1.0 4.0 0.28 0.39 0.28 96 1012.9
20260831125917 68 129 3.0 7.0 0.28 0.39 0.28 96 1013.3
20260831125731 68 121 4.0 7.0 0.27 0.38 0.28 96 1013.3
20260831125236 68 155 2.0 6.0 0.26 0.37 0.27 96 1013.3
20260831124411 68 183 0.0 2.0 0.23 0.35 0.23 96 1013.8
20260831123912 68 182 1.0 5.0 0.16 0.28 0.16 96 1013.8
20260831123412 68 182 1.0 5.0 0.14 0.26 0.14 96 1013.8
20260831122912 68 248 2.0 8.0 0.10 0.22 0.10 96 1013.0
20260831122406 68 289 2.0 8.0 0.04 0.16 0.05 96 1013.0
20260831122222 68 196 1.0 2.0 0.00 0.12 0.00 95 1012.9
20260831121401 68 193 1.0 4.0 0.00 0.12 0.00 96 1011.5
20260831120859 68 158 1.0 4.0 0.00 0.12 0.00 95 1011.5
20260831120356 68 138 1.0 4.0 0.00 0.12 0.00 95 1011.5
20260831115858 68 138 0.0 4.0 0.00 0.12 0.00 96 1011.3
20260831115410 68 126 0.0 2.0 0.00 0.12 0.00 96 1011.3
20260831114855 68 124 1.0 4.0 0.00 0.12 0.00 96 1011.3
20260831114352 68 124 1.0 4.0 0.00 0.12 0.00 96 1011.3
20260831113908 68 136 1.0 4.0 0.00 0.12 0.00 96 1011.3
20260831113343 68 150 0.0 2.0 0.00 0.13 0.00 96 1011.3
20260831112845 68 150 0.0 2.0 0.00 0.13 0.00 96 1011.4
20260831112339 68 150 0.0 2.0 0.00 0.13 0.00 96 1011.4
20260831111841 68 150 1.0 2.0 0.00 0.13 0.00 96 1011.4
20260831111628 68 150 1.0 2.0 0.00 0.13 0.00 96 1011.4
20260831110812 68 150 0.0 1.0 0.00 0.13 0.00 96 1011.4
20260831110309 68 150 0.0 2.0 0.00 0.13 0.00 96 1011.4
20260831105809 68 150 1.0 2.0 0.00 0.13 0.00 96 1011.5
20260831105624 68 150 1.0 2.0 0.00 0.13 0.00 96 1011.5
20260831105117 68 150 0.0 1.0 0.00 0.13 0.00 96 1011.5
20260831104430 68 150 0.0 1.0 0.00 0.13 0.00 96 1011.5
20260831104352 68 150 0.0 1.0 0.00 0.13 0.00 96 1011.5
20260831103256 68 150 0.0 1.0 0.00 0.14 0.00 96 1011.5
20260831103111 68 150 1.0 2.0 0.00 0.15 0.00 96 1011.6
20260831102256 68 150 1.0 2.0 0.00 0.15 0.00 96 1011.6
20260831101755 68 150 1.0 2.0 0.00 0.16 0.00 96 1011.6
20260831101254 68 150 1.0 4.0 0.00 0.16 0.00 95 1012.0
20260831100755 68 150 1.0 4.0 0.00 0.16 0.00 96 1012.0
20260831100252 68 166 0.0 1.0 0.00 0.16 0.00 95 1012.0
20260831100059 68 166 0.0 0.0 0.00 0.17 0.00 95 1012.0
20260831095244 68 166 0.0 0.0 0.00 0.17 0.00 95 1012.0
20260831095048 68 166 0.0 0.0 0.00 0.17 0.00 95 1012.0
20260831094220 68 166 0.0 0.0 0.00 0.18 0.00 95 1012.0
20260831093717 68 166 0.0 0.0 0.00 0.19 0.00 95 1012.0
20260831093146 68 166 0.0 0.0 0.00 0.19 0.00 95 1012.1
20260831092630 68 166 0.0 0.0 0.00 0.19 0.00 95 1012.0
20260831092437 68 166 0.0 0.0 0.00 0.19 0.00 95 1012.0
20260831091616 68 166 0.0 0.0 0.00 0.19 0.00 95 1012.0
20260831091120 68 166 0.0 0.0 0.00 0.20 0.00 95 1012.3
20260831090613 68 166 0.0 0.0 0.00 0.20 0.00 95 1012.3
20260831090120 68 166 0.0 0.0 0.00 0.23 0.00 95 1012.3
20260831085605 68 166 0.0 0.0 0.00 0.24 0.00 95 1012.3
20260831085416 68 166 0.0 0.0 0.00 0.25 0.00 95 1012.3
20260831084603 68 166 0.0 0.0 0.00 0.25 0.00 95 1012.3
20260831084058 68 166 0.0 0.0 0.00 0.26 0.00 95 1012.1
20260831083554 68 166 0.0 0.0 0.00 0.28 0.00 95 1012.1
20260831083049 68 166 0.0 0.0 0.00 0.28 0.00 95 1012.1
20260831082514 68 166 0.0 0.0 0.00 0.28 0.00 95 1012.2
20260831082006 68 166 0.0 0.0 0.00 0.28 0.00 95 1012.2
20260831081620 69 166 0.0 0.0 0.00 0.28 0.00 95 1012.4
20260831081554 68 166 0.0 0.0 0.00 0.28 0.00 95 1012.4
20260831080609 69 166 0.0 0.0 0.00 0.28 0.00 95 1012.1
20260831080542 69 166 0.0 0.0 0.00 0.28 0.00 95 1012.4
20260831075456 69 166 0.0 0.0 0.00 0.28 0.00 95 1012.1
20260831074946 69 166 0.0 0.0 0.00 0.28 0.00 95 1012.1
20260831074446 69 166 0.0 0.0 0.00 0.28 0.00 95 1012.1
20260831073942 68 166 0.0 0.0 0.00 0.28 0.00 94 1012.1
20260831073445 68 166 0.0 0.0 0.00 0.28 0.00 94 1012.1
20260831072940 69 166 0.0 0.0 0.00 0.28 0.00 94 1012.0
20260831072434 69 166 0.0 0.0 0.00 0.28 0.00 94 1012.0
20260831071918 69 166 0.0 0.0 0.00 0.28 0.00 94 1012.0
20260831071709 69 166 0.0 0.0 0.00 0.28 0.00 94 1012.0
20260831071205 69 166 0.0 0.0 0.00 0.28 0.00 94 1012.0
20260831070408 69 166 0.0 0.0 0.00 0.28 0.00 94 1012.0
20260831065902 69 166 0.0 0.0 0.00 0.28 0.00 93 1012.1
20260831065659 69 166 0.0 0.0 0.00 0.28 0.00 93 1012.1
20260831065157 69 166 0.0 0.0 0.00 0.28 0.00 94 1012.2
20260831064353 69 166 0.0 0.0 0.00 0.28 0.00 94 1012.1
20260831064008 69 166 0.0 0.0 0.00 0.28 0.00 93 1012.1
20260831063942 69 166 0.0 0.0 0.00 0.28 0.00 93 1012.1
20260831062841 70 166 0.0 0.0 0.00 0.28 0.00 93 1012.6
20260831062313 70 166 0.0 0.0 0.00 0.28 0.00 93 1012.6
20260831061817 70 166 0.0 0.0 0.00 0.28 0.00 93 1012.6
20260831061304 70 166 0.0 0.0 0.00 0.28 0.00 93 1012.4
20260831060800 70 166 0.0 0.0 0.00 0.28 0.00 93 1012.4
20260831060302 70 166 0.0 0.0 0.00 0.28 0.00 93 1012.4
20260831055749 70 166 0.0 0.0 0.00 0.28 0.00 93 1012.4
20260831055231 70 166 0.0 0.0 0.00 0.28 0.00 93 1012.4
20260831054719 70 166 0.0 0.0 0.00 0.28 0.00 93 1012.4
20260831054212 70 194 0.0 0.0 0.00 0.28 0.00 93 1012.5
20260831053704 70 194 1.0 4.0 0.00 0.28 0.00 93 1012.5
20260831053515 70 194 1.0 4.0 0.00 0.28 0.00 93 1012.5
20260831052656 70 148 1.0 2.0 0.00 0.28 0.00 93 1012.7
20260831052145 70 192 1.0 4.0 0.00 0.28 0.00 93 1012.7
20260831051643 70 192 1.0 4.0 0.00 0.30 0.00 93 1012.7
20260831051142 70 186 0.0 2.0 0.00 0.30 0.00 93 1012.6
20260831050655 69 186 0.0 3.0 0.00 0.30 0.00 93 1012.5
20260831050142 69 186 0.0 3.0 0.00 0.30 0.00 93 1012.5
20260831045640 69 186 0.0 2.0 0.00 0.30 0.00 93 1012.4
20260831045111 69 186 1.0 2.0 0.00 0.30 0.00 93 1012.4
20260831044606 69 186 1.0 4.0 0.00 0.30 0.00 92 1012.3
20260831044120 69 186 1.0 4.0 0.00 0.30 0.00 92 1012.3
20260831044038 70 182 2.0 4.0 0.00 0.30 0.00 92 1012.3
20260831044034 70 194 1.0 4.0 0.00 0.30 0.00 92 1012.3
20260831042607 70 198 1.0 4.0 0.00 0.30 0.00 92 1012.6
20260831042052 70 146 1.0 4.0 0.00 0.30 0.00 92 1012.6
20260831041652 70 157 1.0 2.0 0.00 0.30 0.00 92 1012.6
20260831041044 70 183 1.0 2.0 0.00 0.30 0.00 92 1012.6
20260831040546 70 182 0.0 2.0 0.00 0.30 0.00 92 1012.6
20260831040015 70 183 0.0 2.0 0.00 0.30 0.00 91 1012.6
20260831035514 70 183 0.0 0.0 0.00 0.30 0.30 91 1012.5
20260831035312 70 183 0.0 0.0 0.00 0.30 0.30 91 1012.5
20260831034503 70 183 0.0 0.0 0.00 0.30 0.30 91 1012.7
20260831033958 70 183 0.0 0.0 0.00 0.30 0.30 91 1012.7
20260831033458 70 183 0.0 0.0 0.00 0.30 0.30 91 1012.7
20260831032950 70 183 0.0 0.0 0.00 0.30 0.30 90 1012.8
20260831032442 70 183 0.0 0.0 0.00 0.30 0.30 90 1012.8
20260831031940 70 183 0.0 0.0 0.00 0.30 0.30 90 1012.8
20260831031436 70 183 0.0 0.0 0.00 0.30 0.30 90 1012.7
20260831030934 71 183 0.0 0.0 0.00 0.30 0.30 90 1012.7
20260831030423 71 183 0.0 0.0 0.00 0.30 0.30 90 1012.7
20260831030225 71 183 0.0 0.0 0.00 0.30 0.30 90 1012.8
20260831025724 71 183 0.0 0.0 0.00 0.30 0.30 89 1012.8
20260831024909 71 183 0.0 0.0 0.00 0.30 0.30 89 1012.8
20260831024404 71 183 0.0 2.0 0.00 0.30 0.30 89 1012.7
20260831024217 71 183 0.0 2.0 0.00 0.30 0.30 88 1012.7
20260831023351 71 183 0.0 2.0 0.00 0.30 0.30 88 1012.7
20260831022853 71 183 0.0 2.0 0.00 0.30 0.30 88 1012.5
20260831022345 72 184 0.0 0.0 0.00 0.30 0.30 87 1012.5
20260831022159 72 184 0.0 0.0 0.00 0.30 0.30 87 1012.5
20260831021344 72 184 0.0 0.0 0.00 0.30 0.30 87 1012.4
20260831021147 72 184 0.0 3.0 0.00 0.30 0.30 86 1012.4
20260831020336 72 184 0.0 3.0 0.00 0.32 0.30 86 1012.4
20260831015817 73 191 0.0 0.0 0.00 0.34 0.30 85 1012.5
20260831015309 73 191 0.0 0.0 0.00 0.35 0.30 85 1012.5
20260831014937 73 191 1.0 2.0 0.00 0.35 0.30 84 1012.3
20260831014907 73 191 0.0 1.0 0.00 0.35 0.30 84 1012.5
20260831013924 73 182 1.0 4.0 0.00 0.35 0.30 84 1012.3
20260831013901 73 191 1.0 4.0 0.00 0.35 0.30 84 1012.3
20260831012805 74 199 2.0 4.0 0.00 0.35 0.30 83 1012.3
20260831012306 74 144 2.0 5.0 0.00 0.35 0.30 83 1012.3
20260831011807 74 211 2.0 5.0 0.00 0.35 0.30 83 1012.3
20260831011301 74 200 2.0 5.0 0.00 0.35 0.30 83 1012.0
20260831010801 74 175 2.0 7.0 0.00 0.35 0.30 83 1012.0
20260831010625 74 229 2.0 7.0 0.00 0.35 0.30 82 1012.0
20260831005802 74 200 1.0 4.0 0.00 0.35 0.30 82 1011.6
20260831005622 74 200 1.0 3.0 0.00 0.35 0.30 81 1011.6
20260831004756 74 207 1.0 4.0 0.00 0.35 0.30 81 1011.6
20260831004247 75 207 2.0 4.0 0.00 0.35 0.30 81 1011.5
20260831004107 75 199 1.0 4.0 0.00 0.35 0.30 80 1011.5
20260831003244 75 202 1.0 4.0 0.00 0.35 0.30 80 1011.5
20260831002733 75 174 2.0 7.0 0.00 0.36 0.30 79 1011.6
20260831002215 75 211 1.0 7.0 0.00 0.36 0.30 79 1011.6
20260831002028 75 198 1.0 5.0 0.00 0.36 0.30 79 1011.6
20260831001207 76 198 2.0 7.0 0.00 0.37 0.30 78 1011.6
20260831000708 76 190 2.0 7.0 0.00 0.37 0.30 77 1011.6
20260831000211 76 196 2.0 7.0 0.00 0.37 0.30 77 1011.6
20260831000017 76 201 1.0 4.0 0.00 0.37 0.30 76 1011.6
20260830235208 76 206 1.0 5.0 0.00 0.37 0.30 76 1011.6
20260830235016 77 220 2.0 5.0 0.00 0.37 0.30 75 1011.7
20260830234209 77 180 2.0 5.0 0.00 0.37 0.30 75 1011.7
20260830234032 77 246 3.0 9.0 0.00 0.37 0.30 74 1011.7
20260830233209 77 211 3.0 9.0 0.00 0.37 0.30 74 1011.7
20260830232703 77 198 3.0 6.0 0.00 0.37 0.30 73 1011.7
20260830232533 78 201 3.0 7.0 0.00 0.37 0.30 73 1011.7
20260830231703 78 273 3.0 7.0 0.00 0.37 0.30 72 1011.7
20260830231215 78 186 3.0 6.0 0.00 0.37 0.30 71 1011.6
20260830230702 78 213 3.0 10.0 0.00 0.37 0.30 70 1011.7
20260830230155 79 216 2.0 10.0 0.00 0.37 0.30 70 1011.7
20260830225654 79 202 2.0 6.0 0.00 0.37 0.30 70 1011.7
20260830225150 79 244 2.0 7.0 0.00 0.37 0.30 69 1011.7
20260830224652 79 204 3.0 7.0 0.00 0.37 0.30 68 1011.7
20260830224521 80 200 3.0 6.0 0.00 0.37 0.30 68 1011.6
20260830223708 80 193 3.0 8.0 0.00 0.37 0.30 66 1011.5
20260830223701 80 186 3.0 7.0 0.00 0.37 0.30 67 1011.7
20260830223648 80 173 2.0 7.0 0.00 0.37 0.30 67 1011.7
20260830222141 80 273 3.0 8.0 0.00 0.37 0.30 66 1011.5
20260830221641 80 252 3.0 7.0 0.00 0.37 0.30 66 1011.5
20260830221141 80 195 4.0 9.0 0.00 0.37 0.30 64 1011.7
20260830220640 81 225 4.0 9.0 0.00 0.37 0.30 64 1011.7
20260830220131 81 254 3.0 7.0 0.00 0.37 0.30 64 1011.7
20260830215928 81 213 4.0 10.0 0.00 0.37 0.30 64 1011.5
20260830215111 81 212 5.0 11.0 0.00 0.37 0.30 63 1011.6
20260830214611 81 212 5.0 11.0 0.00 0.37 0.30 62 1011.6
20260830214113 82 251 4.0 10.0 0.00 0.37 0.30 62 1011.6
20260830213926 82 222 3.0 7.0 0.00 0.37 0.30 62 1011.6
20260830213111 81 188 4.0 9.0 0.00 0.37 0.30 61 1011.6
20260830212611 81 203 5.0 14.0 0.00 0.37 0.30 61 1011.9
20260830212108 82 212 4.0 14.0 0.00 0.37 0.30 60 1011.9
20260830211607 82 199 4.0 12.0 0.00 0.37 0.30 61 1012.0
20260830211105 82 235 4.0 12.0 0.00 0.37 0.30 59 1012.0
20260830210607 82 244 5.0 16.0 0.00 0.37 0.30 58 1012.0
20260830210117 83 244 6.0 16.0 0.00 0.37 0.30 57 1012.0
20260830205602 83 171 5.0 12.0 0.00 0.37 0.30 57 1012.0
20260830205104 83 210 4.0 12.0 0.00 0.37 0.30 58 1012.0
20260830204931 83 265 5.0 13.0 0.00 0.37 0.30 57 1012.0
20260830204101 83 194 5.0 13.0 0.00 0.37 0.30 57 1011.9
20260830203918 83 246 5.0 13.0 0.00 0.37 0.30 57 1011.9
20260830203058 83 215 6.0 18.0 0.00 0.37 0.30 58 1011.9
20260830202559 83 203 5.0 18.0 0.00 0.37 0.30 57 1012.0
20260830202114 83 273 4.0 16.0 0.00 0.37 0.30 59 1012.0
20260830201923 83 212 4.0 12.0 0.00 0.37 0.30 62 1012.0
20260830201057 83 266 4.0 12.0 0.00 0.37 0.30 64 1012.3
20260830200908 83 234 4.0 9.0 0.00 0.37 0.30 64 1012.3
20260830200105 83 156 4.0 12.0 0.00 0.37 0.30 63 1012.4
20260830195556 83 228 4.0 12.0 0.00 0.37 0.30 63 1012.4
20260830195053 83 199 4.0 8.0 0.00 0.37 0.30 64 1012.4
20260830194552 83 155 4.0 9.0 0.00 0.37 0.30 65 1012.4
20260830194422 83 213 5.0 9.0 0.00 0.37 0.30 64 1012.4
20260830193929 83 168 4.0 11.0 0.00 0.37 0.30 65 1012.4
20260830193051 82 217 4.0 11.0 0.00 0.37 0.30 66 1012.4
20260830192551 82 186 4.0 9.0 0.00 0.37 0.30 66 1012.2
20260830192427 82 325 4.0 9.0 0.00 0.37 0.30 66 1012.2
20260830191550 82 215 3.0 8.0 0.00 0.37 0.30 67 1012.2
20260830191046 82 184 2.0 8.0 0.00 0.37 0.30 68 1012.4
20260830190546 81 263 3.0 7.0 0.00 0.37 0.30 70 1012.3
20260830190100 81 218 4.0 8.0 0.00 0.37 0.30 71 1012.3
20260830185547 80 241 4.0 8.0 0.00 0.37 0.30 72 1012.2
20260830185044 80 235 3.0 7.0 0.00 0.37 0.30 74 1012.2
20260830184544 79 197 2.0 7.0 0.00 0.37 0.30 74 1012.1
20260830184043 79 200 1.0 5.0 0.00 0.37 0.30 77 1012.2
20260830183543 78 63 2.0 6.0 0.00 0.37 0.30 78 1012.2
20260830183408 78 204 3.0 7.0 0.00 0.37 0.30 77 1012.1
20260830182540 78 205 3.0 7.0 0.00 0.37 0.30 78 1012.1
20260830182041 78 189 2.0 7.0 0.00 0.37 0.30 78 1012.0
20260830181528 77 171 2.0 5.0 0.00 0.37 0.30 80 1012.0
20260830181028 77 150 2.0 6.0 0.00 0.37 0.30 81 1011.9
20260830180511 77 147 2.0 6.0 0.00 0.37 0.30 80 1011.9
20260830180008 76 268 3.0 9.0 0.00 0.37 0.30 83 1012.1
20260830175840 76 193 2.0 9.0 0.00 0.37 0.30 84 1012.1
20260830175334 75 180 2.0 7.0 0.00 0.37 0.30 84 1012.0
20260830174512 74 216 2.0 7.0 0.00 0.37 0.30 84 1012.2
20260830174012 74 203 3.0 9.0 0.00 0.37 0.30 85 1012.2
20260830173507 74 137 3.0 9.0 0.00 0.37 0.30 85 1012.2
20260830173340 74 225 3.0 8.0 0.00 0.37 0.30 86 1012.4
20260830172518 73 209 3.0 8.0 0.00 0.37 0.30 87 1012.4
20260830172007 73 203 3.0 7.0 0.00 0.37 0.30 87 1012.4
20260830171506 73 170 3.0 7.0 0.00 0.37 0.30 88 1012.5
20260830171144 72 181 3.0 7.0 0.00 0.37 0.30 90 1012.4
20260830171106 72 211 3.0 7.0 0.00 0.37 0.30 89 1012.4
20260830170334 71 228 3.0 7.0 0.00 0.37 0.30 90 1012.4
20260830165503 71 196 3.0 6.0 0.00 0.37 0.30 91 1012.4
20260830165326 71 191 3.0 9.0 0.00 0.37 0.30 91 1012.3
20260830164502 71 206 3.0 9.0 0.00 0.37 0.30 91 1012.4
20260830164002 71 185 3.0 6.0 0.00 0.37 0.30 92 1012.4
20260830163500 70 202 2.0 5.0 0.00 0.37 0.30 92 1012.4
20260830163000 70 200 3.0 6.0 0.00 0.37 0.30 92 1012.6
20260830162459 70 199 3.0 6.0 0.00 0.37 0.30 93 1012.6
20260830162332 69 202 2.0 4.0 0.00 0.37 0.30 93 1012.6
20260830161458 69 192 2.0 4.0 0.00 0.37 0.30 93 1012.7
20260830160957 69 206 2.0 4.0 0.00 0.37 0.30 94 1012.7
20260830160449 69 199 2.0 6.0 0.00 0.37 0.30 94 1012.7
20260830160310 69 207 2.0 6.0 0.00 0.37 0.30 94 1012.7
20260830155450 69 161 2.0 5.0 0.00 0.37 0.30 94 1012.7
20260830154949 68 211 2.0 6.0 0.00 0.37 0.30 95 1012.7
20260830154443 68 199 2.0 6.0 0.00 0.37 0.30 95 1012.6
20260830154306 68 201 1.0 4.0 0.00 0.37 0.30 95 1012.6
20260830153430 68 206 1.0 5.0 0.00 0.37 0.30 95 1012.6
20260830152922 67 206 2.0 5.0 0.00 0.37 0.30 96 1012.6
20260830152420 67 213 2.0 5.0 0.00 0.37 0.30 96 1012.6
20260830151921 67 192 2.0 5.0 0.00 0.37 0.30 96 1012.6
20260830151721 67 216 3.0 8.0 0.00 0.37 0.30 96 1012.6
20260830150904 67 159 2.0 8.0 0.00 0.37 0.30 96 1012.5
20260830150404 66 159 2.0 5.0 0.00 0.37 0.30 96 1012.5
20260830150231 66 206 2.0 5.0 0.00 0.37 0.30 95 1012.5
20260830145357 66 171 3.0 6.0 0.00 0.37 0.30 96 1012.5
20260830144857 66 174 3.0 6.0 0.00 0.37 0.30 95 1012.5
20260830144357 66 130 3.0 8.0 0.00 0.37 0.30 96 1012.2
20260830143856 66 207 4.0 8.0 0.00 0.37 0.30 96 1012.2
20260830143358 66 94 3.0 8.0 0.00 0.37 0.30 96 1012.2
20260830142854 66 173 3.0 8.0 0.00 0.37 0.30 96 1012.6
20260830142353 66 195 3.0 9.0 0.00 0.37 0.30 96 1012.6
20260830141856 66 208 3.0 9.0 0.00 0.37 0.30 96 1012.6
20260830141717 65 175 4.0 8.0 0.00 0.37 0.30 96 1012.6
20260830141220 65 170 4.0 8.0 0.02 0.37 0.30 96 1012.6
20260830140354 65 168 3.0 7.0 0.11 0.37 0.30 96 1012.6
20260830135843 65 212 3.0 8.0 0.11 0.37 0.30 96 1012.7
20260830135345 65 198 3.0 8.0 0.11 0.37 0.30 96 1012.7
20260830134840 65 146 3.0 7.0 0.11 0.37 0.30 96 1012.7
20260830134704 65 186 3.0 7.0 0.12 0.37 0.30 96 1012.9
20260830134214 65 169 3.0 7.0 0.12 0.37 0.30 96 1012.9
20260830133331 65 153 2.0 7.0 0.12 0.37 0.30 96 1012.9
20260830132822 65 165 2.0 5.0 0.12 0.37 0.30 96 1013.0